Location: Bay Harbour
(38.2612°N, 75.2555°W)
Time: 22:44:39
(UTC+00:00)

Cosmos 2058 Rocket - Pass Details

Date: 29 October 2020
Orbit: 610 x 640 km, 82.5° (Epoch: 03 December)

Event Time Altitude Azimuth Distance (km) Brightness Sun altitude
Rises 23:06:41 0° 197° (SSW) 2,912 6.9 -12.8°
Reaches altitude 10° 23:08:57 10° 202° (SSW) 2,012 6.1 -13.2°
Maximum altitude 23:13:19 53° 279° (W) 787 4.0 -14.1°
Drops below altitude 10° 23:17:45 10° 357° (N) 2,037 5.7 -14.9°
Sets 23:20:03 0° 2° (N) 2,952 6.5 -15.4°
